| time (UTC) | temp F | wind direction | speed knots | gust knots | rain 1hr in | rain 24hr in | rain mn in | humidity % | barometer mb |
| 20260508231318 | 55 | 100 | 3.5 | 15.6 | 0.00 | 0.23 | 0.04 | 77 | 1013.7 |
| 20260508230829 | 55 | 107 | 7.8 | 12.2 | 0.00 | 0.23 | 0.04 | 78 | 1013.8 |
| 20260508230318 | 55 | 183 | 3.5 | 7.8 | 0.00 | 0.23 | 0.04 | 79 | 1013.8 |
| 20260508225825 | 55 | 192 | 1.7 | 11.3 | 0.00 | 0.23 | 0.04 | 79 | 1013.6 |
| 20260508225355 | 55 | 88 | 4.3 | 14.8 | 0.00 | 0.23 | 0.04 | 78 | 1013.6 |
| 20260508224825 | 55 | 120 | 5.2 | 15.6 | 0.00 | 0.23 | 0.04 | 78 | 1013.6 |
| 20260508224335 | 55 | 104 | 6.1 | 15.6 | 0.00 | 0.23 | 0.04 | 78 | 1013.8 |
| 20260508223826 | 55 | 127 | 4.3 | 13.0 | 0.01 | 0.23 | 0.04 | 79 | 1013.7 |
| 20260508223317 | 55 | 79 | 5.2 | 17.4 | 0.02 | 0.23 | 0.04 | 79 | 1013.6 |
| 20260508222843 | 54 | 160 | 2.6 | 17.4 | 0.04 | 0.23 | 0.04 | 80 | 1013.4 |
| 20260508222337 | 54 | 108 | 7.8 | 19.1 | 0.04 | 0.23 | 0.04 | 80 | 1013.4 |
| 20260508221827 | 54 | 124 | 5.2 | 14.8 | 0.04 | 0.23 | 0.04 | 81 | 1013.1 |
| 20260508221318 | 54 | 89 | 6.1 | 20.9 | 0.04 | 0.23 | 0.04 | 81 | 1012.9 |
| 20260508220829 | 54 | 95 | 12.2 | 20.9 | 0.04 | 0.23 | 0.04 | 81 | 1012.9 |
| 20260508220339 | 54 | 179 | 10.4 | 22.6 | 0.04 | 0.23 | 0.04 | 85 | 1012.8 |
| 20260508215825 | 53 | 82 | 7.0 | 22.6 | 0.04 | 0.23 | 0.04 | 86 | 1012.4 |
| 20260508215334 | 53 | 120 | 7.8 | 18.2 | 0.04 | 0.23 | 0.04 | 88 | 1012.2 |
| 20260508214824 | 53 | 104 | 9.6 | 25.2 | 0.04 | 0.23 | 0.04 | 89 | 1012.0 |
| 20260508214335 | 53 | 80 | 10.4 | 34.8 | 0.04 | 0.23 | 0.04 | 90 | 1011.6 |
| 20260508213826 | 53 | 101 | 18.2 | 34.8 | 0.03 | 0.22 | 0.03 | 89 | 1011.5 |
| 20260508213334 | 53 | 100 | 15.6 | 25.2 | 0.02 | 0.21 | 0.02 | 86 | 1011.0 |
| 20260508212844 | 54 | 82 | 16.5 | 31.3 | 0.00 | 0.19 | 0.00 | 82 | 1010.8 |
| 20260508212355 | 55 | 116 | 17.4 | 31.3 | 0.00 | 0.19 | 0.00 | 78 | 1010.5 |
| 20260508211824 | 56 | 86 | 12.2 | 20.9 | 0.00 | 0.19 | 0.00 | 75 | 1010.4 |
| 20260508211336 | 56 | 87 | 13.0 | 20.9 | 0.00 | 0.19 | 0.00 | 74 | 1010.0 |
| 20260508210826 | 56 | 84 | 10.4 | 20.0 | 0.00 | 0.19 | 0.00 | 73 | 1009.9 |
| 20260508210316 | 55 | 82 | 11.3 | 20.0 | 0.00 | 0.19 | 0.00 | 73 | 1009.6 |
| 20260508205822 | 55 | 82 | 11.3 | 19.1 | 0.00 | 0.19 | 0.00 | 73 | 1009.5 |
| 20260508205333 | 55 | 79 | 9.6 | 23.5 | 0.00 | 0.19 | 0.00 | 73 | 1009.4 |
| 20260508204824 | 55 | 97 | 13.0 | 23.5 | 0.00 | 0.19 | 0.00 | 73 | 1009.0 |
| 20260508204333 | 55 | 64 | 12.2 | 21.7 | 0.00 | 0.19 | 0.00 | 73 | 1009.1 |
| 20260508203821 | 55 | 79 | 9.6 | 21.7 | 0.00 | 0.19 | 0.00 | 73 | 1009.0 |
| 20260508203330 | 55 | 81 | 8.7 | 22.6 | 0.00 | 0.19 | 0.00 | 72 | 1008.9 |
| 20260508202822 | 55 | 84 | 9.6 | 22.6 | 0.00 | 0.19 | 0.00 | 71 | 1008.7 |
| 20260508202333 | 56 | 55 | 11.3 | 20.9 | 0.00 | 0.19 | 0.00 | 69 | 1008.5 |
| 20260508201824 | 56 | 84 | 11.3 | 22.6 | 0.00 | 0.19 | 0.00 | 68 | 1008.3 |
| 20260508201332 | 56 | 98 | 13.0 | 26.1 | 0.00 | 0.19 | 0.00 | 68 | 1008.2 |
| 20260508200824 | 56 | 77 | 13.9 | 26.1 | 0.00 | 0.19 | 0.00 | 68 | 1008.2 |
| 20260508195818 | 56 | 80 | 15.6 | 27.8 | 0.00 | 0.19 | 0.00 | 66 | 1007.8 |
| 20260508195329 | 56 | 90 | 13.9 | 21.7 | 0.00 | 0.19 | 0.00 | 64 | 1007.7 |
| 20260508194820 | 56 | 34 | 8.7 | 23.5 | 0.00 | 0.19 | 0.00 | 64 | 1007.4 |
| 20260508194331 | 56 | 91 | 11.3 | 23.5 | 0.00 | 0.19 | 0.00 | 63 | 1007.4 |
| 20260508193842 | 56 | 95 | 10.4 | 32.2 | 0.00 | 0.19 | 0.00 | 63 | 1007.1 |
| 20260508193336 | 56 | 109 | 8.7 | 16.5 | 0.00 | 0.19 | 0.00 | 64 | 1007.0 |
| 20260508192822 | 56 | 105 | 6.1 | 20.9 | 0.00 | 0.19 | 0.00 | 64 | 1006.9 |
| 20260508192333 | 56 | 101 | 10.4 | 26.1 | 0.00 | 0.19 | 0.00 | 64 | 1006.8 |
| 20260508191824 | 56 | 117 | 13.9 | 26.1 | 0.00 | 0.19 | 0.00 | 64 | 1006.6 |
| 20260508191335 | 56 | 98 | 9.6 | 20.0 | 0.00 | 0.19 | 0.00 | 65 | 1006.4 |
| 20260508190826 | 56 | 101 | 9.6 | 24.3 | 0.00 | 0.19 | 0.00 | 65 | 1006.2 |
| 20260508190337 | 56 | 81 | 13.9 | 24.3 | 0.00 | 0.19 | 0.00 | 64 | 1006.3 |
| 20260508185819 | 56 | 120 | 13.0 | 23.5 | 0.00 | 0.19 | 0.00 | 64 | 1006.3 |
| 20260508185330 | 56 | 108 | 7.8 | 19.1 | 0.00 | 0.19 | 0.00 | 65 | 1006.0 |
| 20260508184825 | 56 | 82 | 13.0 | 20.9 | 0.00 | 0.19 | 0.00 | 64 | 1006.0 |
| 20260508184354 | 56 | 94 | 12.2 | 20.9 | 0.00 | 0.19 | 0.00 | 64 | 1006.0 |
| 20260508183824 | 56 | 82 | 13.0 | 20.0 | 0.00 | 0.19 | 0.00 | 63 | 1006.0 |
| 20260508183334 | 56 | 116 | 9.6 | 15.6 | 0.00 | 0.19 | 0.00 | 65 | 1005.9 |
| 20260508182842 | 56 | 124 | 8.7 | 17.4 | 0.00 | 0.19 | 0.00 | 65 | 1005.8 |
| 20260508182327 | 56 | 97 | 9.6 | 19.1 | 0.00 | 0.19 | 0.00 | 65 | 1005.6 |
| 20260508181818 | 56 | 110 | 12.2 | 19.1 | 0.00 | 0.19 | 0.00 | 64 | 1005.7 |
| 20260508181349 | 56 | 106 | 11.3 | 19.1 | 0.00 | 0.19 | 0.00 | 66 | 1005.6 |
| 20260508180838 | 56 | 92 | 11.3 | 20.9 | 0.00 | 0.19 | 0.00 | 66 | 1005.3 |
| 20260508180328 | 55 | 84 | 13.9 | 24.3 | 0.00 | 0.19 | 0.00 | 66 | 1005.4 |
| 20260508175835 | 55 | 80 | 13.0 | 22.6 | 0.00 | 0.19 | 0.00 | 67 | 1005.2 |
| 20260508175324 | 55 | 96 | 12.2 | 22.6 | 0.00 | 0.19 | 0.00 | 68 | 1005.4 |
| 20260508174834 | 55 | 112 | 13.9 | 28.7 | 0.00 | 0.19 | 0.00 | 67 | 1005.2 |
| 20260508174344 | 56 | 84 | 13.9 | 33.0 | 0.00 | 0.19 | 0.00 | 65 | 1005.3 |
| 20260508173853 | 58 | 113 | 16.5 | 24.3 | 0.00 | 0.19 | 0.00 | 59 | 1005.3 |
| 20260508173326 | 57 | 92 | 12.2 | 20.0 | 0.00 | 0.19 | 0.00 | 55 | 1005.0 |
| 20260508172833 | 56 | 117 | 1.7 | 7.8 | 0.00 | 0.19 | 0.00 | 56 | 1005.0 |
| 20260508172344 | 56 | 67 | 2.6 | 6.1 | 0.00 | 0.19 | 0.00 | 55 | 1004.7 |
| 20260508171834 | 57 | 129 | 0.9 | 2.6 | 0.00 | 0.19 | 0.00 | 54 | 1004.8 |
| 20260508171325 | 57 | 105 | 0.9 | 7.0 | 0.00 | 0.19 | 0.00 | 53 | 1004.9 |
| 20260508170834 | 58 | 147 | 0.0 | 8.7 | 0.00 | 0.19 | 0.00 | 53 | 1004.8 |
| 20260508170326 | 57 | 165 | 0.9 | 6.1 | 0.00 | 0.19 | 0.00 | 53 | 1005.0 |
| 20260508165851 | 57 | 153 | 0.9 | 2.6 | 0.00 | 0.19 | 0.00 | 53 | 1004.9 |
| 20260508165339 | 57 | 143 | 0.9 | 3.5 | 0.00 | 0.19 | 0.00 | 52 | 1005.1 |
| 20260508164826 | 57 | 146 | 0.9 | 3.5 | 0.00 | 0.19 | 0.00 | 51 | 1005.1 |
| 20260508164336 | 57 | 136 | 0.9 | 2.6 | 0.00 | 0.19 | 0.00 | 51 | 1005.2 |
| 20260508163825 | 57 | 173 | 0.9 | 3.5 | 0.00 | 0.19 | 0.00 | 51 | 1005.1 |
| 20260508163335 | 57 | 157 | 1.7 | 4.3 | 0.00 | 0.19 | 0.00 | 50 | 1005.2 |
| 20260508162820 | 57 | 108 | 1.7 | 4.3 | 0.00 | 0.19 | 0.00 | 50 | 1005.1 |
| 20260508162329 | 57 | 205 | 0.0 | 2.6 | 0.00 | 0.19 | 0.00 | 50 | 1005.2 |
| 20260508161824 | 57 | 103 | 0.9 | 2.6 | 0.00 | 0.19 | 0.00 | 50 | 1005.4 |
| 20260508161332 | 58 | 164 | 0.0 | 7.0 | 0.00 | 0.19 | 0.00 | 49 | 1005.6 |
| 20260508160843 | 59 | 90 | 3.5 | 7.8 | 0.00 | 0.19 | 0.00 | 44 | 1005.7 |
| 20260508160332 | 59 | 98 | 4.3 | 7.8 | 0.00 | 0.19 | 0.00 | 44 | 1005.7 |
| 20260508155819 | 58 | 120 | 0.9 | 3.5 | 0.00 | 0.19 | 0.00 | 44 | 1005.8 |
| 20260508155330 | 59 | 124 | 0.0 | 3.5 | 0.00 | 0.19 | 0.00 | 41 | 1005.9 |
| 20260508154819 | 59 | 115 | 0.9 | 4.3 | 0.00 | 0.19 | 0.00 | 43 | 1005.9 |
| 20260508154328 | 58 | 51 | 1.7 | 4.3 | 0.00 | 0.19 | 0.00 | 44 | 1006.0 |
| 20260508153837 | 59 | 70 | 0.9 | 7.0 | 0.00 | 0.19 | 0.00 | 45 | 1006.1 |
| 20260508153326 | 59 | 136 | 2.6 | 7.0 | 0.00 | 0.19 | 0.00 | 45 | 1006.3 |
| 20260508152831 | 59 | 128 | 3.5 | 10.4 | 0.00 | 0.19 | 0.00 | 45 | 1006.5 |
| 20260508152401 | 59 | 117 | 2.6 | 12.2 | 0.00 | 0.19 | 0.00 | 45 | 1006.5 |
| 20260508151827 | 60 | 96 | 7.0 | 12.2 | 0.00 | 0.19 | 0.00 | 43 | 1006.5 |
| 20260508151318 | 60 | 107 | 7.0 | 12.2 | 0.00 | 0.19 | 0.00 | 41 | 1006.7 |
| 20260508150829 | 60 | 89 | 7.0 | 12.2 | 0.00 | 0.19 | 0.00 | 40 | 1006.7 |
| 20260508150322 | 60 | 89 | 7.0 | 12.2 | 0.00 | 0.19 | 0.00 | 40 | 1006.7 |
| 20260508145849 | 60 | 89 | 7.0 | 18.2 | 0.00 | 0.19 | 0.19 | 40 | 1006.8 |
| 20260508145319 | 60 | 75 | 8.7 | 13.9 | 0.00 | 0.19 | 0.19 | 40 | 1006.9 |
| 20260508144850 | 60 | 97 | 7.8 | 13.9 | 0.00 | 0.19 | 0.19 | 41 | 1007.0 |
| 20260508144318 | 60 | 96 | 8.7 | 13.9 | 0.00 | 0.19 | 0.19 | 45 | 1006.9 |
| 20260508143829 | 60 | 98 | 8.7 | 16.5 | 0.00 | 0.19 | 0.19 | 45 | 1006.9 |
| 20260508143340 | 60 | 88 | 10.4 | 22.6 | 0.00 | 0.19 | 0.19 | 45 | 1007.0 |
| 20260508142823 | 60 | 101 | 12.2 | 25.2 | 0.00 | 0.19 | 0.19 | 45 | 1006.7 |
| 20260508142334 | 59 | 84 | 12.2 | 25.2 | 0.00 | 0.19 | 0.19 | 46 | 1006.6 |
| 20260508141824 | 59 | 72 | 7.8 | 17.4 | 0.00 | 0.19 | 0.19 | 49 | 1006.2 |
| 20260508141354 | 59 | 85 | 6.1 | 15.6 | 0.00 | 0.19 | 0.19 | 51 | 1006.3 |
| 20260508140842 | 59 | 90 | 3.5 | 8.7 | 0.00 | 0.19 | 0.19 | 52 | 1006.3 |
| 20260508140331 | 58 | 46 | 3.5 | 18.2 | 0.00 | 0.19 | 0.19 | 53 | 1006.2 |
| 20260508135822 | 59 | 68 | 4.3 | 18.2 | 0.00 | 0.19 | 0.19 | 53 | 1006.2 |
| 20260508135353 | 58 | 105 | 4.3 | 8.7 | 0.00 | 0.19 | 0.19 | 58 | 1006.1 |
| 20260508134821 | 58 | 110 | 2.6 | 7.8 | 0.00 | 0.19 | 0.19 | 60 | 1005.9 |
| 20260508134330 | 58 | 66 | 3.5 | 7.8 | 0.00 | 0.19 | 0.19 | 59 | 1006.0 |
| 20260508133819 | 58 | 108 | 2.6 | 9.6 | 0.00 | 0.19 | 0.19 | 63 | 1006.0 |
| 20260508133328 | 58 | 103 | 2.6 | 6.1 | 0.00 | 0.19 | 0.19 | 63 | 1005.9 |
| 20260508132835 | 58 | 99 | 0.9 | 7.8 | 0.00 | 0.19 | 0.19 | 63 | 1006.0 |
| 20260508132325 | 59 | 99 | 0.9 | 13.9 | 0.00 | 0.19 | 0.19 | 64 | 1006.0 |
| 20260508131835 | 59 | 88 | 7.8 | 13.9 | 0.00 | 0.19 | 0.19 | 63 | 1006.1 |
| 20260508131326 | 59 | 87 | 7.0 | 10.4 | 0.00 | 0.19 | 0.19 | 66 | 1006.3 |
| 20260508130835 | 59 | 122 | 2.6 | 17.4 | 0.00 | 0.19 | 0.19 | 66 | 1006.3 |
| 20260508130326 | 59 | 80 | 10.4 | 17.4 | 0.00 | 0.19 | 0.19 | 66 | 1006.2 |
| 20260508125833 | 59 | 32 | 7.0 | 14.8 | 0.00 | 0.19 | 0.19 | 68 | 1006.3 |
| 20260508125328 | 59 | 88 | 5.2 | 13.0 | 0.00 | 0.19 | 0.19 | 69 | 1006.2 |
| 20260508124818 | 59 | 106 | 4.3 | 11.3 | 0.00 | 0.19 | 0.19 | 70 | 1006.2 |
| 20260508124328 | 58 | 92 | 6.1 | 11.3 | 0.00 | 0.19 | 0.19 | 71 | 1006.2 |
| 20260508123817 | 58 | 103 | 2.6 | 7.0 | 0.00 | 0.19 | 0.19 | 72 | 1006.1 |
| 20260508123328 | 59 | 118 | 1.7 | 8.7 | 0.00 | 0.19 | 0.19 | 72 | 1006.2 |
| 20260508122835 | 59 | 123 | 1.7 | 12.2 | 0.00 | 0.19 | 0.19 | 71 | 1006.3 |
| 20260508122326 | 59 | 91 | 7.0 | 12.2 | 0.00 | 0.19 | 0.19 | 71 | 1006.3 |
| 20260508121817 | 59 | 191 | 3.5 | 16.5 | 0.00 | 0.19 | 0.19 | 71 | 1006.4 |
| 20260508121327 | 59 | 109 | 9.6 | 16.5 | 0.00 | 0.19 | 0.19 | 69 | 1006.5 |
| 20260508120835 | 59 | 94 | 6.1 | 13.9 | 0.00 | 0.19 | 0.19 | 71 | 1006.5 |
| 20260508120324 | 59 | 78 | 6.1 | 18.2 | 0.00 | 0.19 | 0.19 | 71 | 1006.4 |
| 20260508115829 | 59 | 90 | 12.2 | 18.2 | 0.00 | 0.19 | 0.19 | 68 | 1006.4 |
| 20260508115324 | 59 | 113 | 7.8 | 18.2 | 0.00 | 0.19 | 0.19 | 69 | 1006.6 |
| 20260508114835 | 59 | 96 | 7.0 | 18.2 | 0.00 | 0.19 | 0.19 | 70 | 1006.5 |
| 20260508114326 | 59 | 82 | 8.7 | 18.2 | 0.00 | 0.19 | 0.19 | 69 | 1006.3 |
| 20260508113836 | 59 | 114 | 9.6 | 17.4 | 0.00 | 0.19 | 0.19 | 71 | 1006.3 |
| 20260508113326 | 59 | 92 | 7.8 | 20.0 | 0.00 | 0.19 | 0.19 | 73 | 1006.3 |
| 20260508112833 | 59 | 91 | 8.7 | 20.0 | 0.00 | 0.19 | 0.19 | 73 | 1006.2 |
| 20260508112320 | 59 | 113 | 10.4 | 18.2 | 0.00 | 0.19 | 0.19 | 75 | 1006.2 |
| 20260508111830 | 59 | 100 | 10.4 | 15.6 | 0.00 | 0.19 | 0.19 | 75 | 1006.2 |
| 20260508111320 | 59 | 88 | 9.6 | 18.2 | 0.00 | 0.19 | 0.19 | 75 | 1006.1 |
| 20260508110851 | 59 | 105 | 12.2 | 19.1 | 0.00 | 0.19 | 0.19 | 75 | 1006.0 |
| 20260508110321 | 59 | 111 | 8.7 | 19.1 | 0.00 | 0.19 | 0.19 | 76 | 1005.8 |
| 20260508105832 | 59 | 79 | 9.6 | 17.4 | 0.00 | 0.19 | 0.19 | 74 | 1005.9 |
| 20260508105321 | 59 | 101 | 10.4 | 15.6 | 0.00 | 0.19 | 0.19 | 74 | 1006.0 |
| 20260508104831 | 59 | 85 | 6.1 | 15.6 | 0.00 | 0.19 | 0.19 | 77 | 1006.1 |
| 20260508104322 | 59 | 102 | 7.8 | 15.6 | 0.00 | 0.19 | 0.19 | 77 | 1006.0 |
| 20260508103853 | 59 | 131 | 5.2 | 10.4 | 0.00 | 0.19 | 0.19 | 80 | 1006.0 |
| 20260508103342 | 59 | 111 | 6.1 | 13.0 | 0.00 | 0.19 | 0.19 | 81 | 1006.0 |
| 20260508102828 | 59 | 95 | 5.2 | 14.8 | 0.00 | 0.19 | 0.19 | 82 | 1005.8 |
| 20260508102317 | 59 | 79 | 5.2 | 17.4 | 0.00 | 0.19 | 0.19 | 82 | 1005.7 |
| 20260508101827 | 59 | 134 | 7.0 | 17.4 | 0.01 | 0.19 | 0.19 | 82 | 1005.8 |
| 20260508101318 | 59 | 117 | 8.7 | 18.2 | 0.01 | 0.19 | 0.19 | 82 | 1005.7 |
| 20260508100828 | 59 | 86 | 7.8 | 18.2 | 0.02 | 0.19 | 0.19 | 82 | 1005.6 |
| 20260508100323 | 58 | 85 | 7.8 | 14.8 | 0.03 | 0.19 | 0.19 | 83 | 1005.6 |
| 20260508095831 | 59 | 114 | 7.0 | 21.7 | 0.03 | 0.19 | 0.19 | 83 | 1005.6 |
| 20260508095323 | 59 | 74 | 10.4 | 21.7 | 0.05 | 0.19 | 0.19 | 82 | 1005.5 |
| 20260508094834 | 59 | 116 | 13.9 | 20.9 | 0.06 | 0.19 | 0.19 | 82 | 1005.6 |
| 20260508094343 | 59 | 77 | 9.6 | 18.2 | 0.07 | 0.19 | 0.19 | 85 | 1005.4 |
| 20260508093831 | 58 | 92 | 7.8 | 16.5 | 0.07 | 0.19 | 0.19 | 87 | 1005.2 |
| 20260508093322 | 59 | 85 | 8.7 | 20.9 | 0.07 | 0.19 | 0.19 | 88 | 1005.1 |
| 20260508092829 | 59 | 96 | 9.6 | 20.9 | 0.08 | 0.19 | 0.19 | 88 | 1005.0 |
| 20260508092319 | 59 | 72 | 7.8 | 13.0 | 0.08 | 0.19 | 0.19 | 90 | 1004.8 |
| 20260508091830 | 59 | 127 | 3.5 | 7.0 | 0.07 | 0.18 | 0.18 | 92 | 1004.6 |
| 20260508091324 | 59 | 123 | 1.7 | 7.8 | 0.07 | 0.18 | 0.18 | 92 | 1004.6 |
| 20260508090835 | 59 | 105 | 1.7 | 8.7 | 0.07 | 0.17 | 0.17 | 92 | 1004.6 |
| 20260508090344 | 59 | 132 | 2.6 | 5.2 | 0.07 | 0.16 | 0.16 | 92 | 1004.6 |
| 20260508085827 | 59 | 110 | 2.6 | 4.3 | 0.07 | 0.16 | 0.16 | 92 | 1004.4 |
| 20260508085357 | 59 | 131 | 1.7 | 6.1 | 0.07 | 0.14 | 0.14 | 91 | 1004.2 |
| 20260508084826 | 59 | 176 | 0.9 | 3.5 | 0.06 | 0.13 | 0.13 | 91 | 1003.9 |
| 20260508084336 | 59 | 181 | 0.9 | 3.5 | 0.07 | 0.12 | 0.12 | 90 | 1004.0 |
| 20260508083825 | 59 | 157 | 0.9 | 5.2 | 0.08 | 0.12 | 0.12 | 90 | 1003.9 |
| 20260508083333 | 59 | 163 | 1.7 | 7.8 | 0.10 | 0.12 | 0.12 | 90 | 1004.0 |
| 20260508082820 | 60 | 192 | 2.6 | 7.8 | 0.11 | 0.11 | 0.11 | 89 | 1003.9 |
| 20260508082350 | 60 | 122 | 1.7 | 6.1 | 0.11 | 0.11 | 0.11 | 89 | 1004.0 |
| 20260508081819 | 60 | 150 | 1.7 | 6.1 | 0.11 | 0.11 | 0.11 | 88 | 1003.8 |
| 20260508081329 | 60 | 129 | 0.9 | 7.0 | 0.11 | 0.11 | 0.11 | 87 | 1004.0 |
| 20260508080824 | 60 | 139 | 3.5 | 7.0 | 0.10 | 0.10 | 0.10 | 87 | 1003.8 |
| 20260508080335 | 61 | 104 | 0.9 | 4.3 | 0.09 | 0.09 | 0.09 | 88 | 1004.0 |
| 20260508075841 | 61 | 114 | 0.9 | 3.5 | 0.08 | 0.08 | 0.08 | 89 | 1003.7 |
| 20260508075330 | 61 | 148 | 0.9 | 10.4 | 0.07 | 0.07 | 0.07 | 89 | 1003.9 |
| 20260508074821 | 61 | 108 | 1.7 | 10.4 | 0.07 | 0.07 | 0.07 | 89 | 1003.9 |
| 20260508074331 | 61 | 98 | 2.6 | 14.8 | 0.05 | 0.05 | 0.05 | 89 | 1003.6 |
| 20260508073821 | 62 | 91 | 5.2 | 17.4 | 0.04 | 0.04 | 0.04 | 87 | 1003.4 |
| 20260508073329 | 63 | 89 | 8.7 | 17.4 | 0.02 | 0.02 | 0.02 | 85 | 1003.5 |
| 20260508072856 | 64 | 107 | 7.0 | 15.6 | 0.00 | 0.00 | 0.00 | 82 | 1003.4 |
| 20260508072323 | 64 | 91 | 9.6 | 15.6 | 0.00 | 0.00 | 0.00 | 80 | 1003.1 |
| 20260508071831 | 65 | 136 | 5.2 | 11.3 | 0.00 | 0.00 | 0.00 | 81 | 1003.0 |
| 20260508071321 | 65 | 103 | 4.3 | 13.9 | 0.00 | 0.00 | 0.00 | 80 | 1002.9 |
| 20260508070832 | 65 | 134 | 7.0 | 13.9 | 0.00 | 0.00 | 0.00 | 79 | 1002.9 |
| 20260508070327 | 65 | 109 | 5.2 | 8.7 | 0.00 | 0.00 | 0.00 | 79 | 1003.0 |
| 20260508065835 | 66 | 113 | 3.5 | 18.2 | 0.00 | 0.00 | 0.00 | 78 | 1002.9 |
| 20260508065323 | 66 | 141 | 6.1 | 18.2 | 0.00 | 0.00 | 0.00 | 76 | 1002.8 |
| 20260508064834 | 66 | 86 | 2.6 | 10.4 | 0.00 | 0.00 | 0.00 | 75 | 1002.8 |
| 20260508064326 | 66 | 146 | 1.7 | 4.3 | 0.00 | 0.00 | 0.00 | 75 | 1002.6 |
| 20260508063834 | 67 | 130 | 0.9 | 6.1 | 0.00 | 0.00 | 0.00 | 74 | 1002.6 |
| 20260508063323 | 67 | 127 | 1.7 | 10.4 | 0.00 | 0.00 | 0.00 | 74 | 1002.7 |
| 20260508062829 | 67 | 94 | 5.2 | 10.4 | 0.00 | 0.00 | 0.00 | 74 | 1002.6 |
| 20260508062317 | 67 | 79 | 6.1 | 14.8 | 0.00 | 0.00 | 0.00 | 74 | 1002.6 |
| 20260508061828 | 67 | 81 | 8.7 | 14.8 | 0.00 | 0.00 | 0.00 | 74 | 1002.6 |
| 20260508061319 | 67 | 113 | 5.2 | 12.2 | 0.00 | 0.00 | 0.00 | 74 | 1002.6 |
| 20260508060850 | 67 | 91 | 7.0 | 12.2 | 0.00 | 0.00 | 0.00 | 74 | 1002.6 |
| 20260508060317 | 68 | 103 | 7.8 | 13.9 | 0.00 | 0.00 | 0.00 | 73 | 1002.6 |
| 20260508055822 | 68 | 81 | 7.0 | 10.4 | 0.00 | 0.00 | 0.00 | 74 | 1002.5 |
| 20260508055336 | 68 | 98 | 3.5 | 10.4 | 0.00 | 0.00 | 0.00 | 73 | 1002.5 |
| 20260508054828 | 68 | 94 | 2.6 | 11.3 | 0.00 | 0.00 | 0.00 | 73 | 1002.5 |
| 20260508054318 | 68 | 141 | 4.3 | 13.0 | 0.00 | 0.00 | 0.00 | 73 | 1002.5 |
| 20260508053827 | 68 | 91 | 6.1 | 13.0 | 0.00 | 0.00 | 0.00 | 72 | 1002.6 |
| 20260508053335 | 69 | 97 | 2.6 | 9.6 | 0.00 | 0.00 | 0.00 | 73 | 1002.5 |
| 20260508052820 | 68 | 106 | 3.5 | 9.6 | 0.00 | 0.00 | 0.00 | 73 | 1002.4 |
| 20260508052331 | 68 | 146 | 1.7 | 7.0 | 0.00 | 0.00 | 0.00 | 74 | 1002.4 |
| 20260508051819 | 68 | 136 | 2.6 | 7.0 | 0.00 | 0.00 | 0.00 | 74 | 1002.6 |
| 20260508051330 | 68 | 104 | 1.7 | 5.2 | 0.00 | 0.00 | 0.00 | 75 | 1002.7 |
| 20260508050821 | 68 | 158 | 1.7 | 7.8 | 0.00 | 0.00 | 0.00 | 76 | 1002.9 |
| 20260508050331 | 68 | 130 | 1.7 | 7.8 | 0.00 | 0.00 | 0.00 | 75 | 1002.7 |
| 20260508045823 | 68 | 164 | 1.7 | 7.8 | 0.00 | 0.00 | 0.00 | 75 | 1003.0 |
| 20260508045333 | 68 | 151 | 3.5 | 10.4 | 0.00 | 0.00 | 0.00 | 74 | 1003.3 |
| 20260508044823 | 68 | 109 | 3.5 | 10.4 | 0.00 | 0.00 | 0.00 | 74 | 1003.2 |
| 20260508044334 | 68 | 150 | 1.7 | 7.8 | 0.00 | 0.00 | 0.00 | 74 | 1002.8 |
| 20260508043825 | 68 | 91 | 2.6 | 10.4 | 0.00 | 0.00 | 0.00 | 74 | 1003.1 |
| 20260508043335 | 68 | 174 | 5.2 | 13.9 | 0.00 | 0.00 | 0.00 | 73 | 1003.2 |
| 20260508042821 | 68 | 86 | 3.5 | 13.9 | 0.00 | 0.00 | 0.00 | 75 | 1003.3 |
| 20260508042331 | 68 | 79 | 2.6 | 7.8 | 0.00 | 0.00 | 0.00 | 76 | 1003.4 |
| 20260508041841 | 67 | 186 | 3.5 | 7.8 | 0.00 | 0.00 | 0.00 | 77 | 1003.4 |
| 20260508041331 | 67 | 81 | 0.9 | 7.8 | 0.00 | 0.00 | 0.00 | 78 | 1003.5 |
| 20260508040842 | 66 | 103 | 2.6 | 12.2 | 0.00 | 0.00 | 0.00 | 79 | 1003.7 |
| 20260508040335 | 66 | 112 | 3.5 | 12.2 | 0.00 | 0.00 | 0.00 | 79 | 1003.9 |
| 20260508035822 | 66 | 144 | 2.6 | 9.6 | 0.00 | 0.00 | 0.00 | 79 | 1003.8 |
| 20260508035333 | 66 | 75 | 4.3 | 9.6 | 0.00 | 0.00 | 0.00 | 80 | 1003.9 |
| 20260508034822 | 66 | 97 | 2.6 | 10.4 | 0.00 | 0.00 | 0.00 | 80 | 1003.9 |
| 20260508034330 | 66 | 96 | 6.1 | 20.0 | 0.00 | 0.00 | 0.00 | 79 | 1003.9 |
| 20260508033821 | 66 | 107 | 6.1 | 12.2 | 0.00 | 0.00 | 0.00 | 78 | 1004.3 |
| 20260508033352 | 67 | 94 | 4.3 | 12.2 | 0.00 | 0.00 | 0.00 | 78 | 1004.2 |
| 20260508032835 | 67 | 102 | 2.6 | 7.0 | 0.00 | 0.00 | 0.00 | 77 | 1004.2 |
| 20260508032323 | 67 | 122 | 1.7 | 7.0 | 0.00 | 0.00 | 0.00 | 76 | 1004.2 |
| 20260508031831 | 68 | 124 | 2.6 | 10.4 | 0.00 | 0.00 | 0.00 | 74 | 1004.4 |
| 20260508031319 | 68 | 80 | 4.3 | 13.0 | 0.00 | 0.00 | 0.00 | 73 | 1004.4 |
| 20260508030829 | 69 | 99 | 2.6 | 6.1 | 0.00 | 0.00 | 0.00 | 71 | 1004.2 |
| 20260508030319 | 69 | 132 | 3.5 | 6.1 | 0.00 | 0.00 | 0.00 | 68 | 1004.4 |
| 20260508025825 | 69 | 117 | 0.9 | 4.3 | 0.00 | 0.00 | 0.00 | 67 | 1004.5 |
| 20260508025334 | 69 | 171 | 2.6 | 6.1 | 0.00 | 0.00 | 0.00 | 67 | 1004.3 |
| 20260508024824 | 70 | 141 | 2.6 | 7.0 | 0.00 | 0.00 | 0.00 | 66 | 1004.5 |
| 20260508024318 | 70 | 162 | 3.5 | 7.0 | 0.00 | 0.00 | 0.00 | 67 | 1004.4 |
| 20260508023828 | 70 | 153 | 0.9 | 7.8 | 0.00 | 0.00 | 0.00 | 68 | 1004.4 |
| 20260508023319 | 70 | 116 | 3.5 | 7.8 | 0.00 | 0.00 | 0.00 | 69 | 1004.5 |
| 20260508022827 | 71 | 105 | 2.6 | 9.6 | 0.00 | 0.00 | 0.00 | 66 | 1004.4 |
| 20260508022318 | 70 | 238 | 1.7 | 8.7 | 0.00 | 0.00 | 0.00 | 68 | 1004.5 |
| 20260508021849 | 70 | 165 | 2.6 | 7.0 | 0.00 | 0.00 | 0.00 | 67 | 1004.4 |
| 20260508021318 | 71 | 146 | 2.6 | 10.4 | 0.00 | 0.00 | 0.00 | 64 | 1004.5 |
| 20260508020828 | 72 | 100 | 3.5 | 7.8 | 0.00 | 0.00 | 0.00 | 62 | 1004.6 |
| 20260508020319 | 73 | 118 | 3.5 | 8.7 | 0.00 | 0.00 | 0.00 | 59 | 1004.5 |
| 20260508015825 | 74 | 110 | 5.2 | 10.4 | 0.00 | 0.00 | 0.00 | 61 | 1004.4 |
| 20260508015320 | 74 | 156 | 3.5 | 10.4 | 0.00 | 0.00 | 0.00 | 64 | 1004.2 |
| 20260508014851 | 75 | 95 | 3.5 | 8.7 | 0.00 | 0.00 | 0.00 | 64 | 1004.0 |
| 20260508014320 | 75 | 96 | 3.5 | 7.8 | 0.00 | 0.00 | 0.00 | 63 | 1004.1 |
| 20260508013829 | 76 | 100 | 2.6 | 5.2 | 0.00 | 0.00 | 0.00 | 61 | 1004.0 |
| 20260508013318 | 75 | 169 | 0.9 | 4.3 | 0.00 | 0.00 | 0.00 | 57 | 1003.9 |
| 20260508012845 | 75 | 158 | 2.6 | 3.5 | 0.00 | 0.00 | 0.00 | 56 | 1003.9 |
| 20260508012333 | 74 | 184 | 2.6 | 5.2 | 0.00 | 0.00 | 0.00 | 54 | 1003.9 |
| 20260508011823 | 74 | 178 | 3.5 | 5.2 | 0.00 | 0.00 | 0.00 | 54 | 1003.9 |
| 20260508011354 | 75 | 184 | 2.6 | 4.3 | 0.00 | 0.00 | 0.00 | 54 | 1004.0 |
| 20260508010824 | 75 | 216 | 1.7 | 3.5 | 0.00 | 0.00 | 0.00 | 57 | 1004.0 |
| 20260508010354 | 75 | 131 | 0.9 | 3.5 | 0.00 | 0.00 | 0.00 | 57 | 1004.0 |
| 20260508005820 | 76 | 129 | 0.9 | 4.3 | 0.00 | 0.00 | 0.00 | 57 | 1004.0 |
| 20260508005329 | 75 | 144 | 1.7 | 4.3 | 0.00 | 0.00 | 0.00 | 58 | 1004.0 |
| 20260508004839 | 74 | 102 | 1.7 | 3.5 | 0.00 | 0.00 | 0.00 | 64 | 1003.9 |
| 20260508004328 | 73 | 96 | 0.9 | 2.6 | 0.00 | 0.00 | 0.00 | 64 | 1004.0 |
| 20260508003819 | 73 | 126 | 0.0 | 1.7 | 0.00 | 0.00 | 0.00 | 65 | 1003.9 |
| 20260508003328 | 72 | 144 | 0.9 | 1.7 | 0.00 | 0.00 | 0.00 | 66 | 1004.1 |
| 20260508002819 | 71 | 275 | 0.9 | 1.7 | 0.00 | 0.00 | 0.00 | 66 | 1004.3 |
| 20260508002330 | 71 | 163 | 0.9 | 2.6 | 0.00 | 0.00 | 0.00 | 67 | 1004.4 |
| 20260508001821 | 71 | 198 | 0.9 | 2.6 | 0.00 | 0.00 | 0.00 | 64 | 1004.3 |
| 20260508001332 | 71 | 149 | 0.0 | 0.9 | 0.00 | 0.00 | 0.00 | 66 | 1004.6 |
| 20260508000842 | 71 | 127 | 0.0 | 2.6 | 0.00 | 0.00 | 0.00 | 67 | 1004.9 |
| 20260508000329 | 70 | 158 | 0.9 | 3.5 | 0.00 | 0.00 | 0.00 | 68 | 1004.8 |
| 20260507235855 | 70 | 186 | 0.9 | 4.3 | 0.00 | 0.00 | 0.00 | 68 | 1004.7 |
| 20260507235322 | 70 | 277 | 2.6 | 4.3 | 0.00 | 0.00 | 0.00 | 69 | 1004.8 |
| 20260507234831 | 69 | 136 | 0.9 | 1.7 | 0.00 | 0.00 | 0.00 | 71 | 1004.9 |
| 20260507234319 | 68 | 231 | 0.9 | 1.7 | 0.00 | 0.00 | 0.00 | 74 | 1004.9 |
| 20260507233827 | 67 | 233 | 0.0 | 1.7 | 0.00 | 0.00 | 0.00 | 76 | 1004.9 |
| 20260507233334 | 66 | 233 | 0.9 | 2.6 | 0.00 | 0.00 | 0.00 | 77 | 1004.9 |
| 20260507232818 | 66 | 219 | 0.9 | 2.6 | 0.00 | 0.00 | 0.00 | 77 | 1005.0 |
| 20260507232329 | 66 | 192 | 0.9 | 1.7 | 0.00 | 0.00 | 0.00 | 77 | 1004.9 |
| 20260507231820 | 66 | 164 | 0.0 | 0.0 | 0.00 | 0.00 | 0.00 | 77 | 1005.1 |